Home > Weather > South Bend > Past weeks

Flag for USA Weather for the Past 2 Weeks in South Bend, Indiana, USA

Now
56 °F

Mostly cloudy.


Feels Like: 54 °F
Forecast: 43 / 55 °F
Wind: 9 mph from Southwest

Location: Michiana Regional Airport

Current Time: May 4, 2016 at 2:25:53 AM

Latest Report: May 4, 2016 at 12:54 AM


Visibility: 10 mi

Pressure: 29.71 "Hg

Humidity: 58%

Dew Point: 41 °F

Location of South BendLocation

Historic Weather in South Bend — Graph

°F

South Bend Temperature Yesterday

Maximum temperature yesterday: 64 °F (at 3:54 PM)
Minimum temperature yesterday: 41 °F (at 5:54 AM)
Average temperature yesterday: 55 °F

High & Low Weather Summary for the Past Weeks

 TemperatureHumidityPressure
High78 °F (Apr 25, 4:54 PM)100% (Apr 21, 9:54 AM)30.24 "Hg (Apr 21, 9:54 AM)
Low38 °F (Apr 23, 3:54 AM)30% (Apr 20, 2:54 PM)29.60 "Hg (Apr 25, 11:54 PM)
Average54 °F73%29.98 "Hg
* Reported Apr 19 12:54 AM — May 4 12:54 AM, South Bend, Weather by CustomWeather, © 2016

Note: Actual official high and low records may vary slightly from our data, if they occured in-between our weather recording intervals... More about our weather records

Advertising

South Bend Weather History for the Previous 24 Hours

Scroll right to see more
 ConditionsComfort  
Time TempWeatherWind HumidityBarometerVisibility
12:54 AM
Wed, May 4
56 °FMostly cloudy.9 mph58%29.71 "Hg10 mi
11:54 PM
Tue, May 3
57 °FOvercast.9 mph55%29.74 "Hg10 mi
10:54 PM57 °FMostly cloudy.8 mph55%29.77 "Hg10 mi
9:54 PM58 °FOvercast.7 mph54%29.78 "Hg10 mi
8:54 PM59 °FOvercast.6 mph46%29.80 "Hg10 mi
7:54 PM61 °FOvercast.6 mph44%29.81 "Hg10 mi
6:54 PM63 °FPartly sunny.9 mph37%29.83 "Hg10 mi
5:54 PM64 °FPartly sunny.9 mph33%29.83 "Hg10 mi
4:54 PM64 °FSunny.7 mph34%29.84 "Hg10 mi
3:54 PM64 °FSunny.12 mph34%29.87 "Hg10 mi
2:54 PM63 °FSunny.8 mph37%29.89 "Hg10 mi
1:54 PM62 °FPassing clouds.9 mph41%29.91 "Hg10 mi
12:54 PM60 °FSunny.7 mph47%29.93 "Hg10 mi
11:54 AM59 °FSunny.10 mph56%29.95 "Hg10 mi
10:54 AM57 °FSunny.5 mph60%29.97 "Hg10 mi
9:54 AM53 °FSunny.5 mph64%29.98 "Hg10 mi
8:54 AM49 °FSunny.7 mph69%29.98 "Hg10 mi
7:54 AM44 °FScattered clouds.3 mph85%29.98 "Hg10 mi
6:54 AM41 °FOvercast.5 mph93%29.98 "Hg10 mi
5:54 AM41 °FPassing clouds.3 mph93%29.97 "Hg10 mi
4:54 AM45 °FOvercast.3 mph90%29.97 "Hg10 mi
3:54 AM46 °FOvercast.No wind89%29.97 "Hg10 mi
2:54 AM46 °FOvercast.No wind89%29.99 "Hg10 mi
Weather by CustomWeather, © 2016

See weather overviewHow to use our weather pages